sat.trackr.live / text

‹ back to catalog

STARLINK-2232

NORAD 48578 · 2021-041AB

PAYLOAD ACTIVE UNKNOWN

§ Identity

Operator
Country
US
Launch date
2021-05-15
Launch site
AFETR
Launch vehicle
Mass (kg)
RCS (m²)

Purposes: comms

External: N2YO · Heavens-Above · Gunter

§ Orbital elements

Epoch: 2026-09-19T18:15:11.491488Z

Period
94.03 min
Inclination
53.1597°
Eccentricity
0.0003197
Mean motion
15.31361731 rev/d
Perigee alt
469.6 km
Apogee alt
473.9 km
Semi-major
6,849.9 km
B*
-6.6539e-3
RAAN
303.5773°
Arg perigee
80.4140°
Mean anomaly
279.7222°
Rev number
29,501

§ Raw data

STARLINK-22321 48578U 21041AB  26262.76054967 -.00199374  00000+0 -66539-2 0  99972 48578  53.1597 303.5773 0003197  80.4140 279.7222 15.31361731295018

JSON: /api/v1/satellites/48578 · /tle

For live sub-satellite position, see the globe view (requires WebGL).

§ Visibility from observer

Set your observer location to see the next 7 days of passes ≥ 10°. The values pass through the URL so the page stays shareable.

No JS? Fill the form by hand. The geolocation button needs JavaScript.